Miscellaneous Local Product
Issued by NWS Hastings, NE

Home | Current Version | Previous Version | Graphics & Text | Print | Product List | Glossary On
Versions: 1 2 3 4 5 6 7 8 9 10 11 12 13 14 15 16 17 18 19 20 21 22 23 24 25 26 27 28 29 30 31 32 33 34 35 36 37 38 39 40 41 42 43 44 45 46 47 48 49 50
000
AXUS43 KGID 290902
MISGRI

GID CWA HOURLY WEATHER ROUNDUP
NATIONAL WEATHER SERVICE HASTINGS NE
400 AM CDT FRI MAY 29 2015

NOTE: "FAIR" INDICATES FEW OR NO CLOUDS BELOW 12,000 FEET WITH NO
SIGNIFICANT WEATHER AND/OR OBSTRUCTIONS TO VISIBILITY.

...SOUTH CENTRAL NEBRASKA...

CITY           SKY/WX    TMP DP  RH WIND       PRES   REMARKS
GRAND ISLAND   CLOUDY    61  58  90 W10       29.90S
HASTINGS       MOCLDY    61  57  87 W9        29.91R
KEARNEY        CLOUDY    59  54  82 NW8       29.91F
ORD            CLOUDY    59  56  89 SW6       29.88F
YORK           CLOUDY    63  59  88 W6        29.88S
AURORA         CLOUDY    62  62 100 SW3       29.89S
LEXINGTON      CLOUDY    55  53  93 S5        29.91F
HOLDREGE       CLOUDY    59  53  79 W9        29.93F
HEBRON         CLOUDY    61  58  90 CALM      29.89F

...NEBRASKA PANHANDLE...

CITY           SKY/WX    TMP DP  RH WIND       PRES   REMARKS
CHADRON        CLOUDY    55  52  89 SW5       30.04R
ALLIANCE       PTCLDY    52  49  89 NW8       30.04F
SCOTTSBLUFF    PTCLDY    50  48  93 NW6       30.06F
SIDNEY         MOCLDY    52  49  89 NW12      30.07R

...WESTERN AND NORTH CENTRAL NEBRASKA...

CITY           SKY/WX    TMP DP  RH WIND       PRES   REMARKS
VALENTINE      CLOUDY    56  54  93 W8        29.94S
AINSWORTH      CLOUDY    58  55  90 W8        29.93F
ONEILL         CLOUDY    59  58  95 SW5       29.89R
BROKEN BOW     CLOUDY    59  57  93 E3        29.91S
IMPERIAL       CLOUDY    56  52  86 NW6       30.00R
NORTH PLATTE   CLOUDY    54  53  97 W5        29.98R
MCCOOK         MOCLDY    54  52  93 SW14      29.96F

...EASTERN NEBRASKA...

CITY           SKY/WX    TMP DP  RH WIND       PRES   REMARKS
NORFOLK        LGT RAIN  65  60  84 S12       29.86F
SO SIOUX CITY  CLOUDY    67  63  87 SE9       29.86F
TEKAMAH        CLOUDY    65  63  93 SE8       29.87F
COLUMBUS       CLOUDY    63  57  82 NW6       29.86F
ALBION         RAIN      63  58  83 S3        29.89R
OMAHA EPPLEY   CLOUDY    66  63  90 SE10      29.88F
OFFUTT AFB     MOCLDY    64  63  94 E9        29.88F
MILLARD        MOCLDY    66  63  90 SE6       29.89F
LINCOLN        CLOUDY    65  63  93 S7        29.88R
NEBRASKA CITY  PTCLDY    64  63  97 S10       29.90F
BEATRICE       CLOUDY    62  59  88 W6        29.90R
FALLS CITY     MOCLDY    65  62  90 S9        29.89F

...NORTHERN KANSAS...

CITY           SKY/WX    TMP DP  RH WIND       PRES   REMARKS
GOODLAND       PTCLDY    52  49  89 W9        30.04S
HILL CITY      CLOUDY    56  53  90 W7        29.97R
NORTON         SUNNY     55  48  76 W8        29.95S
SMITH CENTER   MOCLDY    57  55  94 W7        29.96R
HAYS           CLOUDY    57  50  77 E3        29.96S
RUSSELL        CLOUDY    58  57  97 W3        29.93S
CONCORDIA      MOCLDY    59  58  96 S6        29.91S
SALINA         MOCLDY    62  58  86 CALM      29.91S
TOPEKA         CLOUDY    66  65  96 E7        29.91F



USA.gov is the U.S. government's official web portal to all federal, state and local government web resources and services.